STARLINK-1868 (47154 NORAD) Tracking and Keplerian Element Data
This shows tracking and keplerian element data for the satellite.
Feedback or suggestion? Click here.
Element | Value |
Catalog | 47154 |
Name | STARLINK-1868 |
Epoch Orbit | 1572 |
Epoch Day | 60.16668981 |
Epoch Year | 2021 |
RAAN | 247.1098 |
Inclination | 53.0572 |
Eccentricity | 0.0001339 |
Argument of Perigee | 77.4582 |
Mean Anonmoly | 351.4045 |
Mean Motion | 15.08197382 |
Decay Rate | -0.01099918 |
L1 | 1 47154U 20088AJ 21060.16668981 -.01099918 00000-0 -76153-1 0 9995 |
L2 | 2 47154 53.0572 247.1098 0001339 77.4582 351.4045 15.08197382 15726 |
Live tracking and technical data element details for STARLINK-1868 (NORAD 47154). STARLINK-1868 can be tracked NOW for your location showing map with azimuth and elevation plus other details from your city location.
Track the satellite on the map from your city or location and see movement details for azimuth, elevation, latitude, longitude, range, height, and movement on the map or in text.
IsCatalogInMostPopularTable: catalog: 47154, numindb: 34
Update: records affected: 1
GetName: 47154 STARLINK-1868
Hit Count: updated at: Mon, 01 Mar 2021 23:13:41 GMT